Regional Weather Roundup
Issued by NWS Green Bay, WI

Home | Current Version | Previous Version | Graphics & Text | Print | Product List | Glossary Off
Versions: 1 2 3 4 5 6 7 8 9 10 11 12 13 14 15 16 17 18 19 20 21 22 23 24 25 26 27 28 29 30 31 32 33 34 35 36 37 38 39 40 41 42 43 44 45 46 47 48 49 50

000
ASUS43 KGRB 221610
RWRGRB

NORTH-CENTRAL AND NORTHEAST WISCONSIN REGIONAL WEATHER ROUNDUP
NATIONAL WEATHER SERVICE GREEN BAY WI
1000 AM CST MON DEC 22 2014

WIZ005-009-010>012-018-019-221700-
NORTH CENTRAL WISCONSIN

CITY           SKY/WX    TMP DP  RH WIND       PRES   REMARKS
IRONWOOD       CLOUDY    36  34  93 SE8G18    29.74F
MANITOWISH WTR CLOUDY    32  32 100 SE9       29.79S FOG
ARBOR VITAE    CLOUDY    33  32  95 SE10      29.80S FOG
EAGLE RIVER    CLOUDY    32  32  99 SE7       29.81F FOG
LAND O LAKES   CLOUDY    32  32 100 S7        29.82S FOG
RHINELANDER    CLOUDY    31  30  96 SE7       29.82S FOG
PHILLIPS       CLOUDY    32  32  99 SE9       29.77S FOG
ANTIGO         CLOUDY    31  31 100 SE10      29.83S FOG
TOMAHAWK       CLOUDY    32  31  95 SE5       29.81S FOG
MERRILL        CLOUDY    32  32  99 SE8       29.81F FOG
$$

WIZ013-073-221700-
NORTHEAST WISCONSIN

CITY           SKY/WX    TMP DP  RH WIND       PRES   REMARKS
IRON MOUNTAIN  CLOUDY    34  31  88 SE10      29.87S FOG
MARINETTE      CLOUDY    36  34  93 S12       29.92S
OCONTO         CLOUDY    35  35  99 SE9       29.91F
$$

WIZ017-030-035>037-045-221700-
CENTRAL WISCONSIN

CITY           SKY/WX    TMP DP  RH WIND       PRES   REMARKS
MEDFORD        CLOUDY    32  31  96 SE7       29.78S FOG
WAUSAU         CLOUDY    33  31  92 SE9       29.81F FOG
MOSINEE        CLOUDY    32  32 100 SE10      29.83S FOG
MARSHFIELD     LGT SNOW  34  31  88 SE12      29.79F FOG
WISC RAPIDS    CLOUDY    34  30  85 SE7       29.83F FOG
STEVENS POINT  CLOUDY    32  30  93 SE6       29.83F FOG
WAUPACA        CLOUDY    36  33  88 SE9       29.86F FOG
SHAWANO        CLOUDY    36  33  90 SE10      29.89S FOG
CLINTONVILLE   CLOUDY    34  32  93 SE7       29.87F FOG
$$

WIZ038-039-048-051-221700-
FOX VALLEY

CITY           SKY/WX    TMP DP  RH WIND       PRES   REMARKS
NWS GREEN BAY  CLOUDY    37  34  89 SE12      29.90F FOG
APPLETON       CLOUDY    34  34 100 SE9       29.87F FOG
OSHKOSH        CLOUDY    35  30  82 SE10      29.87F HAZE
FOND DU LAC    CLOUDY    35  30  82 SE13      29.88S HAZE
$$

WIZ022-050-052-221700-
EAST CENTRAL WISCONSIN

CITY           SKY/WX    TMP DP  RH WIND       PRES   REMARKS
STURGEON BAY   CLOUDY    36  30  80 SE16      29.94F
MANITOWOC      CLOUDY    37  33  85 SE14      29.93F
SHEBOYGAN      CLOUDY    37  32  82 SE12G18   29.92S
$$

LMZ563-521-522-541>543-221700-
LAKESHORE

STATION/POSITION TIME  TEMP    WIND        PRES    VSBY  WAVE
                       AIR SEA DIR/SP/G                  HT/PER
                 (UTC) (F)     (DEG/KT/KT) (MB)    (MI)  (FT/S)
SHEBOYGAN LKSHOR 1600   36 37  140/ 17/ 20 1014.0F
KEWAUNEE LKSHORE 1600   36     170/ 17/ 21 1013.0S
ALGOMA MARINA    1500          180/ 21/ 26   N/A
NORTHPORT PIER   1600   35     150/ 12/ 17 1014.2F
SISTER BAY LKSHO 1600          170/ 13/ 18   N/A
STURGEON BAY CG  1600   36     160/ 16     1014.8   3 1/2  2
CHAMBERS ISLAND  1600   36     120/  7/ 14 1013.9S
MENOMINEE LKSHOR 1600   36     140/ 13/ 16 1013.9F
$$



USA.gov is the U.S. government's official web portal to all federal, state and local government web resources and services.